Overview Statistics Trail Chart Weather Telemetry Raw packets
 

This is the latest recevied weather packets stored in our database for station/object SV9TNF-57. If no packets are shown the sender has not sent any weather packets the latest 10 day(s).

<< 106 107 108 109 110 111 112 >>
Time Temp. Humidity Pressure Rain* Wind** Luminosity Snow
1787860302 28.89° C 46% 996.6 hPa 0 mm 0.45 m/s, 252° - -
1787860002 28.89° C 45% 996.6 hPa 0 mm 0.89 m/s, 258° - -
1787859701 28.89° C 45% 996.8 hPa 0 mm 0.89 m/s, 240° - -
1787859402 28.33° C 45% 996.5 hPa 0 mm 0 m/s - -
1787859101 28.33° C 45% 996.4 hPa 0 mm 0.89 m/s, 265° - -
1787858801 28.33° C 45% 996.5 hPa 0 mm 2.68 m/s, 309° - -
1787858502 28.33° C 44% 996.3 hPa 0 mm 0.89 m/s, 320° - -
1787858201 28.89° C 44% 996.4 hPa 0 mm 0.89 m/s, 278° - -
1787857901 28.89° C 43% 996.3 hPa 0 mm 0.45 m/s, 298° - -
1787857602 28.89° C 42% 996.2 hPa 0 mm 9.83 m/s, 312° - -
1787857301 28.89° C 42% 996.3 hPa 0 mm 3.58 m/s, 291° - -
1787857001 28.89° C 41% 996.3 hPa 0 mm 3.13 m/s, 342° - -
1787856700 29.44° C 41% 996.3 hPa 0 mm 5.36 m/s, 316° - -
1787856401 29.44° C 41% 996.1 hPa 0 mm 3.58 m/s, 295° - -
1787856101 29.44° C 41% 996.2 hPa 0 mm 4.02 m/s, 272° - -
1787855801 29.44° C 40% 996 hPa 0 mm 8.05 m/s, 223° - -
1787855501 29.44° C 40% 996 hPa 0 mm 6.26 m/s, 341° - -
1787855201 29.44° C 41% 996 hPa 0 mm 0.89 m/s, 228° - -
1787854900 29.44° C 40% 995.9 hPa 0 mm 3.58 m/s, 296° - -
1787854600 29.44° C 40% 995.7 hPa 0 mm 11.18 m/s, 300° - -
1787854300 29.44° C 41% 995.7 hPa 0 mm 8.49 m/s, 274° - -
1787854000 29.44° C 41% 995.8 hPa 0 mm 6.71 m/s, 313° - -
1787853700 29.44° C 42% 995.8 hPa 0 mm 6.26 m/s, 335° - -
1787853099 29.44° C 43% 995.8 hPa 0 mm 10.28 m/s, 283° - -
1787852800 29.44° C 43% 995.8 hPa 0 mm 12.07 m/s, 359° - -

* Rain latest hour (hover to see other rain measurements)
** Current wind speed in m/s (hover to see current wind gust speed)